Wind_Speed
32 30 28 27 27 26 25 24 21 20 19 18 16 15 15 14 14 14 14 14 14 14 14 14 14 14 13 13 13 14 13 12 12 12 13 13 13 13 13 12 12 13 13 13
33 31 30 29 28 27 26 25 23 21 20 19 18 17 16 16 15 14 14 14 14 14 14 14 15 14 14 15 14 14 13 13 13 13 14 14 14 14 13 13 13 13 13 13
31 32 31 31 29 28 27 26 24 22 21 20 19 17 17 16 16 15 15 14 14 14 15 15 15 15 15 16 16 15 14 14 15 15 15 15 15 16 15 14 14 14 14 14
31 32 32 30 30 28 27 26 25 24 22 21 20 19 18 17 17 16 16 16 16 16 16 16 16 16 17 17 17 16 15 15 16 16 16 16 16 16 14 15 15 15 15 15
32 31 32 32 31 29 28 27 26 25 24 23 21 20 19 19 19 18 18 17 17 17 18 18 18 18 18 18 16 16 16 16 17 17 17 17 17 15 15 15 15 16 16 16
34 32 30 32 31 29 28 28 27 26 26 24 23 22 22 21 20 20 19 18 18 18 19 19 19 18 18 17 16 16 17 17 18 18 18 18 16 16 16 16 16 16 17 17
34 33 31 32 31 30 30 29 27 26 26 26 25 24 23 22 22 21 21 20 19 19 20 19 18 18 18 18 18 18 18 18 18 18 18 18 17 17 17 17 17 18 18 19
35 33 33 34 32 32 31 29 28 27 26 25 24 24 23 23 23 22 22 22 21 21 21 21 20 19 18 18 18 19 19 19 19 19 19 19 19 18 18 18 18 19 19 19
37 36 35 34 33 32 31 30 29 28 27 26 26 25 25 24 24 24 23 23 23 22 22 21 20 20 19 19 20 20 20 20 21 21 21 21 20 20 20 19 19 19 20 20
37 36 35 34 33 32 32 31 30 29 29 28 27 26 26 26 26 26 26 25 24 24 23 22 22 21 21 21 22 22 22 22 22 22 22 21 21 21 21 20 20 21 21 21
37 36 35 34 33 33 33 32 31 30 29 28 28 28 28 28 27 28 27 26 25 26 25 24 24 24 23 24 24 23 23 23 23 23 23 22 21 22 22 21 22 22 22 22
38 36 36 35 34 33 33 33 32 31 31 30 28 27 27 28 28 28 27 26 26 26 25 25 25 25 25 25 25 24 23 24 24 24 23 23 23 23 23 23 23 23 23 24
38 37 37 36 36 35 34 34 33 32 31 31 29 28 28 28 28 28 28 27 26 26 26 26 26 26 26 27 26 25 24 25 25 24 24 25 24 23 24 24 24 24 25 25
37 37 37 36 36 36 35 35 34 34 33 32 31 30 29 29 29 29 29 28 28 27 27 27 28 27 28 28 27 26 26 26 26 25 25 25 24 24 24 25 25 26 26 26
37 37 37 36 35 35 35 35 34 34 34 33 32 31 30 30 30 30 30 29 29 29 29 29 29 28 29 28 27 27 27 26 26 26 26 25 25 25 26 26 26 27 27 27
36 36 36 36 36 36 35 35 34 34 33 32 31 31 31 31 31 31 30 30 30 30 30 30 30 30 29 28 28 28 27 26 27 27 27 27 27 27 27 27 28 28 28 29
35 35 35 36 36 36 36 36 35 35 33 32 32 32 32 31 31 31 32 32 32 31 31 31 31 30 29 29 29 28 27 27 27 27 27 27 27 28 28 29 29 29 30 29
34 35 35 35 36 36 37 37 37 36 35 34 33 33 33 33 33 33 32 32 32 32 33 32 32 31 30 29 30 30 29 28 28 27 27 28 29 29 29 30 29 30 30 30
35 36 35 35 36 37 37 36 35 35 35 34 34 34 34 33 33 33 33 33 33 32 32 32 32 32 31 29 29 30 29 28 28 28 28 29 29 29 29 29 29 30 30 30
33 34 34 34 35 36 36 36 35 35 35 34 34 34 34 34 34 33 33 33 33 32 32 32 32 32 31 30 30 30 29 29 29 29 29 29 29 29 29 29 29 30 30 30
30 31 32 32 33 33 33 34 35 35 35 35 34 34 34 34 34 33 33 33 33 33 33 33 32 31 30 30 30 30 30 30 31 31 30 30 29 29 29 29 29 29 29 29
30 30 31 32 32 32 32 32 33 34 34 34 34 33 33 33 33 33 32 32 32 32 32 31 31 30 30 31 31 30 31 31 32 31 31 30 30 30 29 30 30 30 30 30
29 30 31 32 31 32 32 32 32 33 33 33 33 32 32 33 32 31 31 31 30 30 30 29 29 29 29 30 30 30 30 30 30 30 30 30 30 30 30 30 30 30 30 30
27 28 29 30 31 31 32 32 32 31 32 32 32 32 32 32 32 31 31 30 29 29 29 30 30 30 29 29 30 30 29 29 30 29 29 30 30 30 30 29 30 30 29 29
26 27 28 29 29 30 31 31 31 30 29 30 30 30 30 31 31 31 30 30 30 29 29 29 28 29 29 29 29 29 29 29 29 29 29 30 29 29 29 29 29 28 28 28
24 25 26 27 28 28 29 29 29 28 28 28 28 28 28 29 29 28 28 28 28 28 28 28 28 28 28 29 29 30 30 30 30 30 30 30 30 29 29 29 28 28 28 28
22 23 24 25 26 26 26 27 26 27 27 27 27 27 27 27 27 27 27 27 28 28 28 27 27 28 28 29 30 30 30 30 30 30 29 29 28 28 28 27 27 27 27 28
Wind_Direction
222 225 229 233 234 235 235 236 238 241 240 241 244 246 251 254 259 266 273 280 287 292 295 298 303 307 310 315 314 317 318 317 320 323 323 320 317 313 307 303 304 304 306 304
224 226 229 231 231 233 234 235 237 238 241 241 242 245 250 252 256 261 268 275 283 289 294 296 299 303 306 309 308 310 310 311 313 314 318 320 319 318 315 312 310 307 308 308
223 225 228 230 230 232 234 236 238 240 242 244 243 244 247 249 252 257 261 269 278 285 291 294 297 300 301 300 300 302 304 306 309 310 310 312 311 312 310 309 311 309 308 306
221 224 226 230 231 231 234 236 238 239 241 242 242 243 244 246 249 251 257 266 273 281 286 288 292 297 298 297 294 294 296 300 305 304 305 307 309 309 308 306 306 307 305 305
221 226 228 230 230 231 233 236 237 239 240 241 242 243 244 245 248 251 256 263 270 276 282 286 288 291 293 293 292 293 294 298 301 302 303 304 305 307 306 307 307 306 305 304
223 223 228 233 232 231 233 236 236 238 240 242 242 243 245 245 247 250 252 259 267 274 279 282 284 286 288 290 290 293 295 296 297 300 301 300 302 303 303 304 307 305 305 304
224 225 228 231 231 229 233 236 237 239 241 242 242 243 245 244 245 248 251 258 265 270 275 277 278 281 285 286 288 291 294 298 302 303 300 298 299 300 302 302 303 304 303 303
224 226 230 231 231 231 234 237 238 240 241 242 242 242 244 244 244 246 251 257 262 267 271 274 276 277 279 283 286 290 293 296 299 300 299 296 297 299 299 301 302 303 303 303
225 226 230 232 233 234 235 236 238 239 240 241 242 242 243 244 245 247 251 255 260 264 270 271 270 273 276 279 283 288 290 292 295 296 296 296 296 298 297 298 299 302 303 303
227 228 230 233 234 234 234 236 237 238 240 241 242 243 245 246 246 248 252 256 260 264 268 270 272 274 277 280 284 286 288 289 291 294 294 293 294 296 297 296 297 300 302 302
227 228 229 231 232 233 234 236 238 238 239 241 242 244 245 245 247 249 252 255 259 263 267 269 273 274 276 280 283 285 286 288 289 292 293 292 293 295 295 295 297 299 301 301
227 228 229 230 232 234 234 235 237 238 239 241 243 243 244 247 249 250 251 254 259 262 265 267 271 273 275 278 281 283 285 288 289 290 290 291 292 294 293 294 295 298 299 299
228 228 230 231 232 233 235 236 237 239 240 241 242 243 245 247 248 249 250 253 257 261 265 267 271 273 273 276 279 281 283 285 287 287 288 289 290 291 291 292 294 296 296 297
227 229 231 231 232 233 236 237 238 239 240 241 242 243 243 244 246 248 250 253 257 261 265 268 271 273 272 274 277 278 280 282 283 284 285 285 286 288 290 292 294 295 296 297
228 230 231 232 232 233 235 237 239 240 241 242 242 242 243 243 245 246 249 253 257 262 265 269 272 273 274 274 276 279 280 280 280 281 283 284 286 287 289 291 293 295 296 296
229 231 231 230 232 233 235 237 237 237 237 238 240 241 243 244 246 247 250 254 258 261 264 268 271 273 274 275 276 278 278 279 280 279 281 283 284 286 288 290 291 293 295 295
230 231 230 230 231 233 235 236 236 235 236 237 239 241 243 245 247 248 250 253 257 261 264 267 269 270 271 273 274 275 276 278 279 279 280 281 283 285 287 288 290 292 293 294
234 233 231 231 232 234 235 235 234 235 237 238 239 241 242 244 246 249 251 254 257 260 263 264 266 268 269 270 271 274 276 277 278 279 280 282 283 285 287 288 290 291 292 294
235 234 233 233 234 234 233 232 233 235 236 239 241 243 244 246 248 250 252 254 256 258 261 263 265 267 267 270 271 272 273 276 278 279 281 283 285 286 288 289 289 291 292 294
234 233 231 232 233 233 232 231 234 236 238 240 243 244 245 247 250 252 254 255 257 259 260 262 265 268 268 269 270 271 272 273 277 279 281 283 285 287 288 288 290 291 292 294
234 232 231 231 231 231 231 233 234 237 240 242 244 245 247 248 250 252 254 255 257 259 260 262 264 265 266 267 268 270 271 273 276 279 280 282 284 286 287 288 291 293 294 294
233 232 231 231 231 231 232 233 235 237 240 242 243 246 246 247 249 251 254 255 256 257 258 260 262 263 264 266 267 269 270 272 275 277 279 282 284 285 287 289 291 293 294 293
230 231 231 232 232 231 233 234 236 238 239 242 243 245 246 247 248 250 253 254 253 254 256 257 258 259 261 264 265 267 269 272 275 276 278 281 283 284 286 288 290 292 293 292
230 231 232 231 231 231 232 234 236 238 239 240 242 245 247 248 248 249 252 251 251 254 255 257 258 260 261 263 265 266 269 272 273 274 277 280 282 283 284 287 289 291 292 291
232 232 232 232 232 232 232 233 235 236 237 239 242 244 244 245 247 248 250 251 252 254 256 258 260 261 261 261 264 267 269 271 272 274 277 279 280 281 283 285 289 290 291 291
230 229 230 231 231 232 233 233 234 235 237 239 240 242 243 244 245 246 248 250 252 253 255 257 258 258 259 262 265 267 270 272 273 275 277 278 279 282 283 284 286 288 289 291
228 228 229 231 232 232 232 231 232 234 236 238 239 240 242 243 244 246 248 251 253 254 255 256 258 259 261 264 267 269 270 271 272 274 276 277 279 280 281 284 286 287 288 290
Height
5876 5880 5883 5887 5890 5894 5898 5902 5905 5908 5909 5911 5911 5912 5913 5913 5914 5914 5914 5914 5913 5912 5911 5910 5908 5907 5905 5904 5902 5901 5899 5897 5896 5894 5892 5891 5889 5887 5885 5884 5882 5881 5879 5877
5869 5873 5877 5881 5885 5888 5892 5895 5899 5902 5904 5905 5906 5908 5909 5910 5910 5911 5911 5910 5910 5909 5908 5907 5906 5905 5903 5902 5900 5899 5897 5896 5894 5892 5890 5889 5887 5885 5883 5882 5880 5878 5876 5874
5864 5867 5871 5875 5879 5883 5886 5889 5893 5896 5899 5900 5902 5903 5905 5906 5906 5907 5907 5907 5907 5906 5905 5905 5903 5902 5900 5899 5898 5896 5895 5893 5892 5890 5888 5886 5884 5883 5881 5879 5877 5875 5873 5872
5858 5861 5865 5871 5873 5877 5880 5884 5887 5890 5892 5894 5896 5898 5900 5901 5902 5903 5903 5903 5903 5902 5902 5901 5900 5899 5897 5896 5894 5893 5892 5890 5889 5886 5885 5883 5881 5880 5878 5876 5874 5872 5870 5869
5851 5855 5859 5863 5867 5871 5875 5878 5881 5883 5886 5888 5891 5893 5894 5896 5897 5898 5899 5899 5899 5898 5898 5897 5896 5895 5894 5892 5891 5890 5888 5887 5885 5883 5881 5880 5878 5877 5875 5873 5871 5869 5867 5865
5844 5849 5853 5857 5861 5865 5869 5871 5875 5877 5880 5883 5885 5888 5889 5891 5892 5893 5894 5894 5894 5894 5894 5893 5892 5891 5890 5888 5887 5886 5885 5883 5881 5880 5878 5877 5875 5873 5871 5869 5867 5865 5864 5861
5836 5842 5846 5849 5854 5859 5864 5866 5869 5871 5874 5876 5879 5881 5883 5884 5886 5887 5889 5889 5890 5890 5889 5888 5888 5887 5886 5884 5883 5882 5881 5879 5877 5875 5874 5873 5871 5869 5867 5865 5864 5862 5860 5857
5829 5835 5841 5842 5847 5852 5855 5858 5862 5865 5867 5870 5872 5874 5876 5878 5880 5882 5883 5884 5885 5884 5884 5883 5883 5882 5881 5880 5879 5878 5877 5875 5873 5872 5870 5868 5867 5865 5863 5861 5859 5857 5855 5853
5822 5828 5831 5835 5839 5844 5848 5851 5854 5857 5860 5863 5865 5868 5870 5872 5874 5876 5877 5878 5879 5879 5878 5878 5877 5877 5876 5876 5875 5874 5872 5871 5869 5867 5866 5864 5862 5860 5858 5856 5854 5852 5850 5848
5814 5819 5823 5827 5832 5836 5840 5843 5847 5850 5853 5856 5858 5861 5863 5865 5867 5869 5871 5872 5872 5872 5872 5872 5872 5871 5871 5871 5869 5868 5867 5866 5864 5862 5860 5859 5857 5855 5853 5851 5850 5847 5845 5843
5806 5811 5815 5820 5824 5828 5832 5836 5839 5842 5845 5848 5851 5854 5856 5858 5860 5862 5863 5865 5865 5866 5866 5866 5866 5866 5865 5864 5864 5862 5861 5860 5858 5857 5855 5853 5851 5849 5847 5846 5844 5842 5840 5838
5797 5803 5807 5812 5816 5820 5824 5828 5831 5834 5838 5841 5844 5846 5849 5851 5853 5855 5856 5857 5858 5859 5859 5859 5860 5859 5859 5858 5857 5856 5855 5853 5852 5850 5849 5847 5845 5843 5841 5840 5838 5836 5834 5832
5789 5794 5798 5803 5807 5811 5815 5819 5823 5826 5830 5833 5836 5839 5841 5843 5845 5846 5848 5850 5851 5852 5852 5853 5853 5852 5852 5851 5850 5849 5848 5847 5845 5844 5842 5841 5839 5837 5835 5834 5832 5830 5828 5826
5779 5784 5789 5794 5799 5803 5807 5811 5814 5818 5821 5825 5828 5831 5833 5835 5837 5839 5841 5842 5844 5845 5845 5845 5845 5845 5844 5844 5843 5842 5841 5840 5838 5837 5835 5834 5832 5831 5829 5827 5825 5823 5821 5819
5771 5776 5780 5785 5790 5794 5798 5802 5805 5809 5813 5816 5819 5822 5825 5827 5829 5831 5833 5835 5836 5837 5837 5837 5837 5837 5836 5836 5835 5834 5833 5832 5831 5830 5828 5826 5825 5824 5822 5820 5818 5816 5814 5811
5762 5766 5771 5776 5781 5785 5789 5793 5796 5800 5804 5808 5811 5814 5816 5819 5821 5823 5825 5826 5828 5828 5829 5829 5829 5829 5828 5828 5828 5827 5826 5824 5823 5822 5821 5819 5818 5817 5815 5813 5811 5809 5807 5804
5753 5757 5762 5767 5771 5776 5780 5783 5787 5792 5795 5799 5802 5805 5808 5810 5812 5814 5816 5818 5819 5820 5820 5820 5821 5821 5820 5820 5820 5819 5818 5817 5816 5814 5813 5812 5810 5809 5807 5805 5803 5801 5799 5796
5744 5749 5753 5757 5762 5766 5770 5774 5778 5782 5787 5790 5793 5795 5798 5801 5803 5805 5807 5809 5810 5811 5811 5811 5812 5812 5812 5812 5812 5811 5810 5809 5808 5807 5805 5804 5802 5801 5799 5797 5795 5792 5790 5788
5735 5740 5744 5748 5752 5756 5760 5765 5769 5773 5777 5780 5783 5786 5789 5791 5794 5796 5797 5799 5800 5801 5802 5802 5803 5803 5803 5803 5803 5802 5802 5801 5800 5799 5797 5796 5794 5792 5790 5788 5786 5784 5782 5779
5726 5730 5734 5738 5743 5747 5751 5755 5760 5763 5767 5771 5774 5777 5779 5781 5784 5786 5787 5789 5790 5791 5793 5793 5794 5794 5794 5794 5794 5793 5793 5792 5791 5790 5789 5787 5786 5784 5782 5780 5778 5775 5773 5771
5717 5721 5725 5729 5734 5738 5742 5746 5750 5754 5758 5761 5764 5767 5769 5772 5774 5776 5777 5779 5780 5781 5782 5783 5784 5784 5784 5785 5785 5784 5784 5783 5783 5781 5780 5779 5777 5775 5773 5772 5769 5767 5765 5762
5710 5713 5717 5721 5725 5729 5734 5737 5741 5745 5749 5752 5755 5757 5760 5762 5764 5766 5767 5769 5770 5771 5772 5773 5774 5775 5775 5775 5775 5775 5775 5775 5774 5772 5771 5770 5768 5767 5765 5763 5761 5759 5756 5754
5702 5705 5709 5713 5717 5721 5725 5729 5733 5736 5739 5742 5745 5748 5750 5753 5755 5757 5759 5759 5760 5761 5762 5764 5765 5765 5766 5766 5766 5766 5766 5765 5764 5763 5762 5761 5760 5758 5756 5754 5752 5750 5748 5745
5695 5698 5701 5705 5709 5713 5716 5720 5724 5727 5730 5733 5736 5739 5741 5743 5746 5747 5749 5750 5751 5752 5753 5754 5755 5756 5756 5757 5757 5757 5756 5756 5755 5754 5753 5752 5750 5749 5747 5746 5744 5741 5739 5737
5688 5691 5694 5697 5701 5704 5708 5711 5715 5718 5721 5724 5727 5730 5732 5734 5736 5738 5739 5741 5742 5743 5744 5745 5746 5746 5747 5747 5748 5747 5747 5747 5746 5745 5744 5743 5741 5740 5738 5737 5735 5733 5731 5728
5681 5684 5687 5690 5693 5696 5700 5703 5706 5710 5713 5716 5719 5721 5724 5725 5727 5729 5731 5732 5733 5734 5735 5736 5737 5738 5738 5739 5739 5738 5738 5737 5737 5736 5735 5734 5732 5731 5730 5728 5726 5724 5722 5720
5676 5678 5681 5684 5686 5689 5692 5695 5699 5702 5705 5708 5711 5713 5715 5717 5719 5721 5722 5723 5725 5726 5727 5728 5729 5729 5730 5730 5730 5729 5729 5728 5728 5727 5726 5725 5723 5722 5721 5719 5718 5716 5714 5712